Eveleth, MN

5:45 PM CST on February 19, 2017 (GMT -0600)
Eveleth-Virginia Municipal

Weather History for KEVM - December, 2012

Change the Weather History Date:

Saturday, December 22, 2012

  Actual Average Record
Temperature  
Mean Temperature 10 °F -  
Max Temperature 21 °F 18 °F 38 °F (1991)
Min Temperature -2 °F 2 °F -29 °F (1989)
Degree Days  
Heating Degree Days 56    
Moisture  
Dew Point 4 °F    
Average Humidity 81    
Maximum Humidity 92    
Minimum Humidity 74    
Precipitation  
Precipitation 0.00 in - - ()
Sea Level Pressure  
Sea Level Pressure 30.01 in    
Wind  
Wind Speed 3 mph (NW)    
Max Wind Speed 16 mph    
Max Gust Speed 24 mph    
Visibility 8 miles    
Events Snow    
Averages and records for this station are not official NWS values.
T = Trace of Precipitation, MM = Missing Value Source: NWS Daily Summary

Daily Weather History Graph

Daily Weather History Graph

Search for Another Location

Airport or City:

Trip Planner

Search our weather history database for the weather conditions in past years. The results will help you decide how hot, cold, wet, or windy it might be!

Date:

Astronomy

Dec. 22, 2012 Rise Set
Actual Time 7:55 AM CST 4:22 PM CST
Civil Twilight 7:19 AM CST 4:58 PM CST
Nautical Twilight 6:40 AM CST 5:37 PM CST
Astronomical Twilight 6:02 AM CST 6:15 PM CST
Moon 12:52 PM CST (12/22) 2:27 AM CST (12/22)
Length of Visible Light 9h 38m
Length of Day
8h 27m
Waxing Gibbous, 74% of the Moon is Illuminated
Dec 22
Waxing Gibbous
Dec 28
Full
Jan 4
Last Quarter
Jan 11
New
Jan 18
First Quarter

Hourly Weather History & Observations

Time (CST) Temp. Windchill Dew Point Humidity Pressure Visibility Wind Dir Wind Speed Gust Speed Precip Events Conditions
12:10 AM -0.4 °F - -5.8 °F 78% 30.11 in 10.0 mi Calm Calm - N/A   Clear
12:30 AM -2.2 °F - -5.8 °F 85% 30.11 in 10.0 mi Calm Calm - N/A   Clear
12:49 AM -0.4 °F - -5.8 °F 78% 30.11 in 10.0 mi Calm Calm - N/A   Clear
1:10 AM -0.4 °F - -5.8 °F 78% 30.10 in 10.0 mi Calm Calm - N/A   Clear
1:29 AM -2.2 °F - -5.8 °F 85% 30.10 in 10.0 mi Calm Calm - N/A   Clear
1:50 AM -2.2 °F - -5.8 °F 85% 30.10 in 10.0 mi Calm Calm - N/A   Clear
2:09 AM -0.4 °F - -5.8 °F 78% 30.09 in 10.0 mi Calm Calm - N/A   Clear
2:29 AM -2.2 °F - -7.6 °F 78% 30.09 in 10.0 mi Calm Calm - N/A   Clear
2:50 AM -2.2 °F - -7.6 °F 78% 30.08 in 10.0 mi Calm Calm - N/A   Clear
3:09 AM -2.2 °F -10.4 °F -7.6 °F 78% 30.08 in 10.0 mi NNE 3.5 mph - N/A   Clear
3:29 AM -2.2 °F - -7.6 °F 78% 30.06 in 10.0 mi Calm Calm - N/A   Clear
3:50 AM -2.2 °F - -7.6 °F 78% 30.06 in 10.0 mi Calm Calm - N/A   Clear
4:09 AM -2.2 °F - -7.6 °F 78% 30.05 in 10.0 mi Calm Calm - N/A   Clear
4:29 AM -2.2 °F - -7.6 °F 78% 30.05 in 10.0 mi Calm Calm - N/A   Clear
4:50 AM -2.2 °F - -7.6 °F 78% 30.03 in 10.0 mi Calm Calm - N/A   Clear
5:09 AM -2.2 °F - -5.8 °F 85% 30.03 in 10.0 mi Calm Calm - N/A   Clear
5:29 AM -2.2 °F - -7.6 °F 78% 30.02 in 10.0 mi Calm Calm - N/A   Clear
5:50 AM -2.2 °F - -7.6 °F 78% 30.01 in 10.0 mi Calm Calm - N/A   Clear
6:09 AM -2.2 °F - -7.6 °F 78% 30.01 in 10.0 mi Calm Calm - N/A   Clear
6:29 AM -2.2 °F - -7.6 °F 78% 30.00 in 10.0 mi Calm Calm - N/A   Clear
6:50 AM -2.2 °F -10.4 °F -7.6 °F 78% 29.99 in 10.0 mi NNE 3.5 mph - N/A   Clear
7:09 AM -2.2 °F - -7.6 °F 78% 30.00 in 10.0 mi Calm Calm - N/A   Clear
7:30 AM -0.4 °F - -4.0 °F 85% 29.99 in 10.0 mi Calm Calm - N/A   Clear
7:49 AM -0.4 °F - -4.0 °F 85% 29.99 in 10.0 mi Calm Calm - N/A   Clear
8:09 AM -0.4 °F - -4.0 °F 85% 29.98 in 10.0 mi Calm Calm - N/A   Clear
8:30 AM 1.4 °F - -4.0 °F 78% 29.98 in 10.0 mi Calm Calm - N/A   Clear
8:49 AM 3.2 °F - -0.4 °F 85% 29.98 in 10.0 mi Calm Calm - N/A   Clear
9:09 AM 3.2 °F - -0.4 °F 85% 29.99 in 10.0 mi Calm Calm - N/A   Scattered Clouds
9:30 AM 5.0 °F - 1.4 °F 85% 29.99 in 10.0 mi Calm Calm - N/A   Scattered Clouds
9:49 AM 8.6 °F - 5.0 °F 85% 29.99 in 10.0 mi Calm Calm - N/A   Scattered Clouds
10:09 AM 12.2 °F - 8.6 °F 85% 29.98 in 10.0 mi Calm Calm - N/A   Scattered Clouds
10:29 AM 12.2 °F - 10.4 °F 92% 29.97 in 10.0 mi Calm Calm - N/A   Mostly Cloudy
10:49 AM 12.2 °F 6.1 °F 8.6 °F 85% 29.96 in 10.0 mi WSW 3.5 mph - N/A   Overcast
11:10 AM 15.8 °F 10.2 °F 12.2 °F 86% 29.96 in 10.0 mi WSW 3.5 mph - N/A   Mostly Cloudy
11:29 AM 15.8 °F 10.2 °F 10.4 °F 79% 29.95 in 10.0 mi West 3.5 mph - N/A   Mostly Cloudy
11:49 AM 17.6 °F - 12.2 °F 79% 29.94 in 10.0 mi Calm Calm - N/A   Mostly Cloudy
12:10 PM 17.6 °F 10.7 °F 12.2 °F 79% 29.94 in 10.0 mi West 4.6 mph - N/A   Mostly Cloudy
12:30 PM 17.6 °F 10.7 °F 12.2 °F 79% 29.95 in 10.0 mi WNW 4.6 mph - N/A   Scattered Clouds
12:49 PM 17.6 °F 10.7 °F 12.2 °F 79% 29.93 in 10.0 mi WSW 4.6 mph - N/A   Mostly Cloudy
1:10 PM 19.4 °F 14.3 °F 12.2 °F 74% 29.93 in 10.0 mi West 3.5 mph - N/A   Overcast
1:30 PM 21.2 °F 14.9 °F 14.0 °F 74% 29.92 in 10.0 mi West 4.6 mph - N/A   Overcast
1:49 PM 21.2 °F 10.9 °F 14.0 °F 74% 29.92 in 10.0 mi NW 9.2 mph - N/A   Overcast
2:10 PM 21.2 °F 11.7 °F 14.0 °F 74% 29.92 in 10.0 mi NW 8.1 mph - N/A   Mostly Cloudy
2:30 PM 21.2 °F 11.7 °F 14.0 °F 74% 29.92 in 10.0 mi NNW 8.1 mph - N/A   Scattered Clouds
2:49 PM 21.2 °F 10.1 °F 14.0 °F 74% 29.93 in 10.0 mi NW 10.4 mph - N/A   Scattered Clouds
3:10 PM 19.4 °F 7.9 °F 14.0 °F 80% 29.94 in 10.0 mi NW 10.4 mph 17.3 mph N/A   Mostly Cloudy
3:30 PM 19.4 °F 9.5 °F 12.2 °F 74% 29.95 in 10.0 mi NW 8.1 mph - N/A   Overcast
3:49 PM 17.6 °F 12.3 °F 12.2 °F 79% 29.95 in 5.0 mi North 3.5 mph - N/A Snow Light Snow
4:10 PM 17.6 °F 4.3 °F 14.0 °F 86% 29.96 in 7.0 mi NW 12.7 mph 16.1 mph N/A   Overcast
4:30 PM 17.6 °F 7.3 °F 14.0 °F 86% 29.97 in 2.0 mi NNW 8.1 mph - N/A Snow Light Snow
4:49 PM - - - N/A% 29.98 in 3.0 mi NNW 8.1 mph 16.1 mph N/A   Unknown
5:10 PM 15.8 °F 0.3 °F 10.4 °F 79% 29.99 in 7.0 mi NNW 16.1 mph 23.0 mph N/A Snow Light Snow
5:30 PM 14.0 °F -1.4 °F 10.4 °F 86% 30.00 in 10.0 mi NNW 15.0 mph 24.2 mph N/A Snow Light Snow
5:49 PM 14.0 °F 3.9 °F 10.4 °F 86% 30.00 in 2.5 mi North 6.9 mph - N/A Snow Light Snow
6:10 PM 14.0 °F 2.9 °F 8.6 °F 79% 30.01 in 7.0 mi North 8.1 mph - N/A Snow Light Snow
6:29 PM 12.2 °F -2.5 °F 8.6 °F 85% 30.01 in 7.0 mi NW 12.7 mph 23.0 mph N/A Snow Light Snow
6:49 PM 12.2 °F -3.1 °F 8.6 °F 85% 30.02 in 5.0 mi NNW 13.8 mph 19.6 mph N/A Snow Light Snow
7:10 PM 12.2 °F -1.8 °F 8.6 °F 85% 30.02 in 5.0 mi NNW 11.5 mph - N/A Snow Light Snow
7:29 PM 12.2 °F 0.7 °F 8.6 °F 85% 30.02 in 5.0 mi North 8.1 mph 17.3 mph N/A Snow Light Snow
7:49 PM 12.2 °F -0.2 °F 8.6 °F 85% 30.02 in 4.0 mi NW 9.2 mph - N/A Snow Light Snow
8:10 PM 12.2 °F -1.0 °F 8.6 °F 85% 30.03 in 5.0 mi NW 10.4 mph - N/A Snow Light Snow
8:29 PM 12.2 °F -0.2 °F 8.6 °F 85% 30.03 in 4.0 mi NNW 9.2 mph 19.6 mph N/A Snow Light Snow
8:49 PM 12.2 °F 2.9 °F 8.6 °F 85% 30.03 in 4.0 mi North 5.8 mph - N/A Snow Light Snow
9:10 PM 12.2 °F 2.9 °F 8.6 °F 85% 30.03 in 5.0 mi NNW 5.8 mph - N/A Snow Light Snow
9:29 PM 12.2 °F - 8.6 °F 85% 30.04 in 3.0 mi Calm Calm - N/A Snow Light Snow
9:50 PM 12.2 °F 2.9 °F 8.6 °F 85% 30.05 in 3.0 mi North 5.8 mph - N/A Snow Light Snow
10:10 PM 12.2 °F 1.7 °F 8.6 °F 85% 30.05 in 5.0 mi NNW 6.9 mph - N/A Snow Light Snow
10:29 PM 12.2 °F 0.7 °F 8.6 °F 85% 30.05 in 7.0 mi North 8.1 mph - N/A Snow Light Snow
10:50 PM 12.2 °F -0.2 °F 8.6 °F 85% 30.06 in 7.0 mi North 9.2 mph 16.1 mph N/A Snow Light Snow
11:10 PM 12.2 °F -0.2 °F 8.6 °F 85% 30.06 in 7.0 mi North 9.2 mph - N/A Snow Light Snow
11:29 PM 12.2 °F 0.7 °F 8.6 °F 85% 30.05 in 5.0 mi NNW 8.1 mph - N/A Snow Light Snow
11:50 PM 12.2 °F 2.9 °F 8.6 °F 85% 30.06 in 3.0 mi North 5.8 mph - N/A Snow Light Snow